Minot, ND

10:32 AM CDT on June 02, 2020 (GMT -0500)
Minot International

Weather History for KMOT - March, 2020

Change the Weather History Date:

Sunday, March 29, 2020

  Actual Average Record
Temperature  
Mean Temperature 44 °F -  
Max Temperature 61 °F - 70 °F (1966)
Min Temperature 28 °F - -15 °F (1964)
Degree Days  
Heating Degree Days 21    
Moisture  
Dew Point 30 °F    
Average Humidity 58    
Maximum Humidity 89    
Minimum Humidity 28    
Precipitation  
Precipitation 0.00 in - 0.26 in (1989)
Sea Level Pressure  
Sea Level Pressure 29.97 in    
Wind  
Wind Speed 7 mph (SSE)    
Max Wind Speed 13 mph    
Max Gust Speed 20 mph    
Visibility 10 miles    
Events      
T = Trace of Precipitation, MM = Missing Value Source: NWS Daily Summary

Daily Weather History Graph

Daily Weather History Graph

Search for Another Location

Airport or City:

Astronomy

Mar. 29, 2020 Rise Set
Actual Time 7:28 AM CDT 8:12 PM CDT
Civil Twilight 6:56 AM CDT 8:43 PM CDT
Nautical Twilight 6:19 AM CDT 9:21 PM CDT
Astronomical Twilight 5:39 AM CDT 10:00 PM CDT
Moon 10:04 AM CDT (3/29) 12:43 AM CDT (3/29)
Length of Visible Light 13h 46m
Length of Day
12h 43m
Waxing Crescent, 24% of the Moon is Illuminated
Mar 29
Waxing Crescent
Apr 1
First Quarter
Apr 7
Full
Apr 14
Last Quarter
Apr 22
New

Hourly Weather History & Observations

Time (CDT) Temp. Windchill Dew Point Humidity Pressure Visibility Wind Dir Wind Speed Gust Speed Precip Events Conditions
2:54 AM 36.0 °F 28.0 °F 28.9 °F 76% 29.85 in 10.0 mi SW 11.5 mph - N/A   Clear
3:54 AM 35.1 °F - 27.0 °F 72% 29.86 in 10.0 mi Calm Calm - N/A   Clear
4:54 AM 30.0 °F 26.5 °F 24.1 °F 79% 29.88 in 10.0 mi WNW 3.5 mph - N/A   Clear
5:54 AM 30.9 °F 24.3 °F 25.0 °F 79% 29.90 in 10.0 mi WSW 6.9 mph - N/A   Clear
7:54 AM 28.9 °F 21.1 °F 26.1 °F 89% 29.95 in 10.0 mi West 8.1 mph - N/A   Clear
8:54 AM 34.0 °F 28.0 °F 30.0 °F 85% 29.97 in 10.0 mi WNW 6.9 mph - N/A   Clear
10:54 AM 42.1 °F 40.2 °F 33.1 °F 70% 29.99 in 10.0 mi Variable 3.5 mph - N/A   Clear
11:54 AM 45.0 °F - 33.1 °F 63% 30.00 in 10.0 mi Calm Calm - N/A   Clear
12:54 PM 50.0 °F - 33.1 °F 52% 30.00 in 10.0 mi Variable 3.5 mph - N/A   Clear
1:54 PM 55.0 °F - 33.1 °F 43% 29.99 in 10.0 mi East 6.9 mph - N/A   Clear
2:54 PM 57.9 °F - 30.0 °F 35% 29.97 in 10.0 mi Calm Calm - N/A   Clear
3:54 PM 60.1 °F - 27.0 °F 28% 29.97 in 10.0 mi SSE 10.4 mph 19.6 mph N/A   Clear
4:54 PM 60.1 °F - 27.0 °F 28% 29.98 in 10.0 mi SSE 12.7 mph 18.4 mph N/A   Clear
5:54 PM 60.1 °F - 28.0 °F 30% 29.99 in 10.0 mi SE 10.4 mph - N/A   Clear
6:54 PM 57.9 °F - 27.0 °F 31% 30.00 in 10.0 mi SE 10.4 mph - N/A   Clear
7:54 PM 52.0 °F - 34.0 °F 50% 30.02 in 10.0 mi East 12.7 mph - N/A   Clear
8:54 PM 46.9 °F - 35.1 °F 63% 30.04 in 10.0 mi ESE 10.4 mph - N/A   Clear
9:54 PM 45.0 °F 39.7 °F 32.0 °F 60% 30.05 in 10.0 mi SE 10.4 mph - N/A   Clear
10:54 PM 39.9 °F 35.1 °F 30.0 °F 68% 30.06 in 10.0 mi ESE 6.9 mph - N/A   Clear